Location: Buckeye Ditch
(40.9104°N, 122.9517°W)
Time: 02:00:12
(UTC+00:00)

SR - Pass Details

Date: 24 May 2025
Orbit: 570 x 855 km, 66.7° (Epoch: 11 June)

Event Time Altitude Azimuth Distance (km) Brightness Sun altitude
Exits shadow 09:31:34 - 279° (W) 3,121 ? -25.3°
Reaches altitude 10° 09:34:51 10° 304° (NW) 2,488 ? -25.1°
Maximum altitude 09:36:51 12° 325° (NW) 2,357 ? -24.9°
Drops below altitude 10° 09:38:52 10° 346° (NNW) 2,471 ? -24.8°
Sets 09:43:14 0° 17° (NNE) 3,368 ? -24.4°
